[[{"header":{"parameterUnit":"m.s-1","parameterCategory":1,"la1":30.2991,"la2":30.254,"lo1":-89.0895,"lo2":-89.0444,"dy":0.0017,"dx":0.0017,"nx":28,"ny":28,"refTime":"2025-12-03T03:00:00:Z","depth":0,"parameterNumber":2,"parameterNumberName":"U-component_of_WINDS"},"data":[0,0,0,0,0,0,0,0,0,0,0,0,0,0,0,0,0,0,0,0,0,0,0,0,0,0,0,0,0,0,0,0,0,0,0,0,0,0,0,0,0,0,0,0,0,0,0,0,0,0,0,0,0,0,0,0,0,0,-1.0945,-1.0944,0,-1.0863,-1.0862,-1.0861,-1.0772,-1.0771,-1.077,-1.0768,-1.0685,-1.0684,-1.0683,0,0,0,0,0,0,0,0,0,0,0,0,0,-1.1027,-1.1026,-1.0945,-1.0944,-1.0943,-1.0863,-1.0862,-1.0861,-1.0772,-1.0771,-1.0769,-1.0768,-1.0685,-1.0684,-1.0683,0,0,0,0,0,0,0,0,0,0,0,0,0,-1.0973,-1.1026,-1.0945,-1.0889,-1.0884,-1.0863,-1.0862,-1.086,-1.0773,-1.0771,-1.0769,-1.0767,-1.0686,-1.0684,-1.0683,-1.0711,0,0,-1.0678,-1.0677,0,0,0,0,0,0,0,0,-1.0976,-1.097,-1.0899,-1.0893,-1.0887,-1.0826,-1.086,-1.081,-1.0773,-1.0815,-1.0768,-1.0766,-1.0734,-1.0728,-1.0717,-1.0707,-1.0704,-1.0678,-1.0677,-1.0676,-1.0676,0,0,0,0,0,0,0,-1.098,-1.0973,-1.0913,-1.0898,-1.089,-1.0869,-1.0859,-1.085,-1.0786,-1.0811,-1.0804,-1.0796,-1.073,-1.0718,-1.0714,-1.0703,-1.0678,-1.0677,-1.0676,-1.0675,-1.0714,-1.0716,0,0,0,0,0,0,-1.0992,-1.0977,-1.0915,-1.091,-1.0928,-1.0869,-1.0858,-1.0847,-1.0786,-1.0774,-1.0798,-1.0792,-1.0722,-1.0716,-1.0711,-1.0741,-1.0676,-1.0675,-1.0674,-1.0712,-1.0714,-1.0717,0,0,0,0,0,0,-1.0994,-1.0988,-1.0919,-1.0942,-1.0931,-1.087,-1.0858,-1.0847,-1.0835,-1.0775,-1.0764,-1.0798,-1.072,-1.0713,-1.0712,-1.0737,-1.0674,-1.0673,-1.071,-1.0713,-1.0715,-1.0802,0,0,0,0,0,0,-1.0997,-1.0989,-1.0999,-1.0943,-1.093,-1.0921,-1.086,-1.0846,-1.0833,-1.0825,-1.0772,-1.0762,-1.0718,-1.0715,-1.0711,-1.0734,-1.0671,-1.0707,-1.0711,-1.0715,-1.0796,-1.0807,-1.0816,0,0,0,0,0,-1.1,-1.1026,-1.1,-1.0993,-1.0941,-1.0923,-1.0916,-1.0864,-1.0835,-1.0845,-1.0806,-1.0764,-1.0735,-1.0716,-1.071,-1.0733,-1.0705,-1.071,-1.0714,-1.0792,-1.0805,-1.0816,0,0,0,0,0,0,-1.1087,-1.1018,-1.0988,-1.0996,-1.0966,-1.0908,-1.0918,-1.088,-1.0858,-1.0851,-1.0789,-1.0778,-1.0785,-1.0758,-1.0738,-1.0758,-1.0714,-1.0718,-1.0775,-1.0787,-1.0797,-1.0803,-1.067,0,0,0,0,0,-1.1107,-1.1097,-1.1037,-1.105,-1.1037,-1.0981,-1.097,-1.0934,-1.09,-1.0887,-1.0849,-1.0818,-1.0802,-1.0793,-1.0775,-1.0792,-1.078,-1.0805,-1.0815,-1.0824,-1.0828,-1.0836,-1.0847,-1.0731,-1.0731,-1.0731,0,0,-1.1148,-1.1109,-1.1106,-1.1067,-1.1039,-1.1031,-1.097,-1.0964,-1.0957,-1.0886,-1.0883,-1.0854,-1.0816,-1.0825,-1.0826,-1.0803,-1.0857,-1.0829,-1.0837,-1.0836,-1.0842,-1.0853,-1.0863,-1.0734,-1.0734,-1.0733,0,0,-1.1219,-1.1188,-1.1196,-1.117,-1.1129,-1.1091,-1.1094,-1.1041,-1.102,-1.1015,-1.0962,-1.0954,-1.0927,-1.0903,-1.0887,-1.095,-1.091,-1.0946,-1.0999,-1.1008,-1.1017,-1.1025,-1.1048,-1.1058,-1.095,-1.095,-1.095,0,-1.1275,-1.126,-1.1205,-1.1202,-1.1187,-1.1122,-1.113,-1.1107,-1.1063,-1.1054,-1.1028,-1.0995,-1.0964,-1.0967,-1.0983,-1.0972,-1.0973,-1.0952,-1.102,-1.1027,-1.1034,-1.1056,-1.1065,-1.0955,-1.0954,-1.0954,-1.0954,0,-1.1332,-1.1323,-1.1334,-1.1294,-1.1279,-1.1282,-1.1228,-1.122,-1.1185,-1.1151,-1.1149,-1.111,-1.1084,-1.1082,-1.1047,-1.108,-1.1067,-1.1031,-1.0986,-1.105,-1.107,-1.1078,-1.0962,-1.096,-1.0959,-1.0957,0,0,-1.1455,-1.1384,-1.1389,-1.137,-1.1321,-1.1313,-1.1314,-1.1288,-1.1283,-1.1255,-1.1254,-1.1234,-1.1202,-1.1184,-1.1146,-1.1154,-1.1208,-1.1117,-1.1116,-1.1137,-1.1243,-1.1271,-1.1281,-1.1181,-1.1183,-1.1184,-1.1247,0,-1.1518,-1.1514,-1.1465,-1.1476,-1.1467,-1.1406,-1.1407,-1.1377,-1.1345,-1.1334,-1.1299,-1.1286,-1.1243,-1.1232,-1.1237,-1.1201,-1.1229,-1.1195,-1.1181,-1.1181,-1.1193,-1.1291,-1.132,-1.1381,-1.1254,-1.1255,-1.1256,0,-1.159,-1.1567,-1.1577,-1.1529,-1.1523,-1.1525,-1.1498,-1.1487,-1.1453,-1.1429,-1.141,-1.1368,-1.1366,-1.1323,-1.132,-1.1298,-1.129,-1.1271,-1.1272,-1.127,-1.1223,-1.1292,-1.1399,-1.1409,-1.1267,-1.1266,-1.1266,0,-1.168,-1.1651,-1.1654,-1.1639,-1.1583,-1.1585,-1.1562,-1.1525,-1.1514,-1.149,-1.1482,-1.1459,-1.1447,-1.143,-1.1383,-1.1356,-1.1386,-1.1339,-1.1367,-1.1369,-1.1377,-1.1377,-1.1485,-1.137,-1.137,-1.137,-1.137,0,-1.1756,-1.1765,-1.1693,-1.1695,-1.1704,-1.1648,-1.1658,-1.1628,-1.1597,-1.1593,-1.1538,-1.1535,-1.1473,-1.1463,-1.1426,-1.143,-1.1425,-1.1406,-1.1397,-1.1412,-1.1414,-1.1405,-1.14,-1.1372,-1.1372,-1.1371,-1.1371,0,-1.1857,-1.181,-1.1809,-1.1756,-1.1743,-1.1751,-1.1706,-1.1706,-1.1671,-1.1666,-1.1662,-1.1608,-1.1594,-1.1545,-1.1519,-1.1494,-1.151,-1.1491,-1.1522,-1.1516,-1.1547,-1.1545,-1.1654,-1.1666,-1.1543,-1.1545,-1.1546,0,-1.1909,-1.1915,-1.1862,-1.1856,-1.1835,-1.1824,-1.1812,-1.1757,-1.1747,-1.1709,-1.1714,-1.1696,-1.1678,-1.1659,-1.1617,-1.1598,-1.1578,-1.1617,-1.1574,-1.159,-1.158,-1.158,-1.1581,-1.1627,-1.1628,-1.163,-1.1631,0,-1.2007,-1.1983,-1.1967,-1.1944,-1.1931,-1.191,-1.1886,-1.1884,-1.1823,-1.1814,-1.18,-1.1786,-1.176,-1.1743,-1.1716,-1.1693,-1.1653,-1.1645,-1.165,-1.1666,-1.1685,-1.1676,-1.1548,-1.1643,-1.1641,-1.164,-1.164,-1.1639,-1.2085,-1.2088,-1.2052,-1.2037,-1.2013,-1.1992,-1.199,-1.1955,-1.1942,-1.1916,-1.1885,-1.1874,-1.1841,-1.1801,-1.1781,-1.1772,-1.175,-1.1758,-1.176,-1.1763,-1.1771,-1.1686,-1.1767,-1.1767,-1.1766,-1.1766,-1.1766,0,-1.2181,-1.2155,-1.2142,-1.211,-1.2098,-1.2061,-1.2033,-1.2026,-1.2017,-1.1989,-1.1973,-1.1957,-1.1941,-1.1899,-1.1878,-1.188,-1.1861,-1.1876,-1.1876,-1.1872,-1.1791,-1.1789,-1.1892,-1.1892,-1.1892,-1.1892,-1.1892,-1.1892,-1.2229,-1.2232,-1.2205,-1.2196,-1.2169,-1.2159,-1.2146,-1.2127,-1.2104,-1.2089,-1.2075,-1.2047,-1.2014,-1.1991,-1.1975,-1.1963,-1.1959,-1.1981,-1.1963,-1.1889,-1.1877,-1.1865,-1.1863,-1.198,-1.198,-1.2043,-1.2044,-1.2045]},{"header":{"parameterUnit":"m.s-1","parameterCategory":1,"la1":30.2991,"la2":30.254,"lo1":-89.0895,"lo2":-89.0444,"dy":0.0017,"dx":0.0017,"nx":28,"ny":28,"refTime":"2025-12-03T03:00:00:Z","depth":0,"parameterNumber":3,"parameterNumberName":"V-component_of_WINDS"},"data":[0,0,0,0,0,0,0,0,0,0,0,0,0,0,0,0,0,0,0,0,0,0,0,0,0,0,0,0,0,0,0,0,0,0,0,0,0,0,0,0,0,0,0,0,0,0,0,0,0,0,0,0,0,0,0,0,0,0,-0.1425,-0.1425,0,-0.1479,-0.1479,-0.148,-0.1483,-0.1483,-0.1482,-0.1481,-0.1539,-0.1541,-0.1544,0,0,0,0,0,0,0,0,0,0,0,0,0,-0.1325,-0.1327,-0.1424,-0.1425,-0.1426,-0.1479,-0.1479,-0.148,-0.1483,-0.1483,-0.1482,-0.1481,-0.1539,-0.1541,-0.1544,0,0,0,0,0,0,0,0,0,0,0,0,0,-0.1373,-0.1328,-0.1424,-0.1434,-0.1435,-0.1479,-0.1479,-0.148,-0.1484,-0.1483,-0.1482,-0.1481,-0.1538,-0.1541,-0.1544,-0.1583,0,0,-0.1554,-0.1555,0,0,0,0,0,0,0,0,-0.137,-0.1377,-0.1432,-0.1433,-0.1435,-0.1473,-0.1466,-0.1515,-0.1484,-0.1465,-0.1481,-0.148,-0.1518,-0.1523,-0.1535,-0.1585,-0.1588,-0.1554,-0.1556,-0.1557,-0.1558,0,0,0,0,0,0,0,-0.1367,-0.1374,-0.1446,-0.1433,-0.1434,-0.1436,-0.1442,-0.1475,-0.1496,-0.1467,-0.1467,-0.1473,-0.1519,-0.1532,-0.1537,-0.1589,-0.1554,-0.1557,-0.1559,-0.156,-0.1673,-0.1674,0,0,0,0,0,0,-0.1362,-0.1372,-0.1444,-0.1448,-0.14,-0.1438,-0.1445,-0.1462,-0.1496,-0.15,-0.1474,-0.1473,-0.1527,-0.1533,-0.1539,-0.1587,-0.1557,-0.156,-0.1562,-0.1672,-0.1673,-0.1674,0,0,0,0,0,0,-0.136,-0.1368,-0.1442,-0.141,-0.1419,-0.1441,-0.146,-0.1463,-0.1477,-0.1502,-0.1506,-0.1484,-0.1527,-0.1534,-0.1572,-0.1589,-0.1562,-0.1565,-0.1671,-0.1672,-0.1674,-0.1682,0,0,0,0,0,0,-0.1357,-0.1367,-0.1382,-0.141,-0.1421,-0.1473,-0.1461,-0.1465,-0.1482,-0.1481,-0.1512,-0.1516,-0.1527,-0.1567,-0.1575,-0.1592,-0.1567,-0.1669,-0.1671,-0.1673,-0.168,-0.1684,-0.1686,0,0,0,0,0,-0.1353,-0.1382,-0.1382,-0.1391,-0.1439,-0.1474,-0.1481,-0.1492,-0.1483,-0.1498,-0.1514,-0.1515,-0.1585,-0.1571,-0.158,-0.1598,-0.1668,-0.1671,-0.1673,-0.1679,-0.1683,-0.1686,0,0,0,0,0,0,-0.1356,-0.1386,-0.1387,-0.1426,-0.1447,-0.1475,-0.1494,-0.1496,-0.1521,-0.152,-0.1533,-0.154,-0.1577,-0.1591,-0.1575,-0.1638,-0.1626,-0.163,-0.1627,-0.1631,-0.1634,-0.163,-0.157,0,0,0,0,0,-0.1361,-0.1387,-0.1412,-0.1444,-0.1454,-0.1472,-0.1488,-0.1495,-0.1518,-0.1527,-0.1546,-0.1569,-0.1597,-0.1614,-0.1641,-0.1682,-0.1689,-0.1699,-0.1702,-0.1705,-0.1709,-0.1732,-0.1737,-0.1683,-0.1682,-0.1682,0,0,-0.1373,-0.1392,-0.1407,-0.1445,-0.1463,-0.1489,-0.148,-0.1509,-0.1529,-0.1532,-0.1568,-0.1583,-0.161,-0.1649,-0.1667,-0.1662,-0.1725,-0.1708,-0.171,-0.1713,-0.1735,-0.174,-0.1745,-0.1684,-0.1684,-0.1684,0,0,-0.1407,-0.1424,-0.1452,-0.147,-0.1496,-0.1508,-0.1515,-0.1542,-0.1551,-0.1587,-0.1591,-0.1615,-0.1661,-0.1681,-0.1696,-0.1737,-0.1739,-0.1745,-0.1762,-0.1784,-0.1789,-0.1793,-0.1808,-0.1813,-0.1749,-0.1749,-0.1749,0,-0.1418,-0.1457,-0.1467,-0.1496,-0.1512,-0.1515,-0.1545,-0.1562,-0.1596,-0.1607,-0.1601,-0.1659,-0.1677,-0.1721,-0.1731,-0.1744,-0.1752,-0.1742,-0.1787,-0.1791,-0.1795,-0.181,-0.1815,-0.1749,-0.1749,-0.1749,-0.1749,0,-0.147,-0.1497,-0.1517,-0.1549,-0.1568,-0.1597,-0.1612,-0.1629,-0.1634,-0.1647,-0.1684,-0.1705,-0.1737,-0.1747,-0.1752,-0.1792,-0.1788,-0.1784,-0.1773,-0.1801,-0.1815,-0.182,-0.175,-0.175,-0.175,-0.175,0,0,-0.1509,-0.1545,-0.1552,-0.1567,-0.1596,-0.1617,-0.1646,-0.1676,-0.1691,-0.1714,-0.174,-0.1779,-0.1775,-0.1793,-0.18,-0.182,-0.1851,-0.1813,-0.1814,-0.182,-0.1897,-0.1901,-0.1907,-0.1852,-0.1853,-0.1854,-0.1895,0,-0.1547,-0.1598,-0.1607,-0.1652,-0.1678,-0.1681,-0.1706,-0.1727,-0.1739,-0.1763,-0.1777,-0.1805,-0.1797,-0.1808,-0.1827,-0.1843,-0.1867,-0.184,-0.1877,-0.1878,-0.1871,-0.1914,-0.1918,-0.1956,-0.1901,-0.1902,-0.1902,0,-0.1598,-0.1622,-0.1669,-0.1694,-0.1706,-0.1728,-0.1756,-0.1779,-0.1802,-0.181,-0.1829,-0.1834,-0.1865,-0.1851,-0.1895,-0.1876,-0.1892,-0.1902,-0.1903,-0.1908,-0.1893,-0.1921,-0.1968,-0.1974,-0.1911,-0.191,-0.191,0,-0.1623,-0.1667,-0.1701,-0.1713,-0.1743,-0.1759,-0.1772,-0.1795,-0.1812,-0.1836,-0.1848,-0.1876,-0.1891,-0.1913,-0.1926,-0.1914,-0.1968,-0.1955,-0.1976,-0.1976,-0.1989,-0.1988,-0.204,-0.1996,-0.1996,-0.1996,-0.1996,0,-0.1665,-0.1694,-0.1712,-0.1733,-0.1766,-0.1776,-0.1809,-0.1822,-0.1842,-0.1866,-0.187,-0.1893,-0.1907,-0.1932,-0.1942,-0.1977,-0.1984,-0.1992,-0.1994,-0.1992,-0.1991,-0.2003,-0.2001,-0.1998,-0.1997,-0.1997,-0.1997,0,-0.1699,-0.1712,-0.1749,-0.1774,-0.1781,-0.1804,-0.1826,-0.1847,-0.1859,-0.1889,-0.1897,-0.1916,-0.1945,-0.196,-0.1996,-0.2003,-0.2043,-0.2043,-0.2035,-0.2036,-0.2056,-0.2055,-0.2119,-0.2128,-0.2078,-0.2078,-0.2078,0,-0.1726,-0.1748,-0.1775,-0.1791,-0.1805,-0.1831,-0.1848,-0.1859,-0.1877,-0.1905,-0.1923,-0.1952,-0.1977,-0.2024,-0.2041,-0.207,-0.2071,-0.2092,-0.2076,-0.2073,-0.2073,-0.2072,-0.2074,-0.2095,-0.2096,-0.2096,-0.2096,0,-0.1772,-0.1777,-0.1801,-0.1828,-0.1848,-0.187,-0.1891,-0.1904,-0.1919,-0.1939,-0.1968,-0.1987,-0.2024,-0.2054,-0.2083,-0.2098,-0.21,-0.2101,-0.2107,-0.2106,-0.2101,-0.2105,-0.2044,-0.21,-0.2099,-0.2099,-0.2099,-0.2099,-0.1803,-0.1823,-0.1846,-0.1873,-0.189,-0.1909,-0.193,-0.1944,-0.1969,-0.1999,-0.2004,-0.2036,-0.206,-0.2099,-0.2115,-0.214,-0.2136,-0.2145,-0.2147,-0.215,-0.2151,-0.2095,-0.2145,-0.2145,-0.2145,-0.2145,-0.2145,0,-0.1851,-0.1865,-0.1889,-0.1919,-0.194,-0.1939,-0.1962,-0.198,-0.2008,-0.2029,-0.2052,-0.2087,-0.2115,-0.2135,-0.2164,-0.2181,-0.2182,-0.2188,-0.2187,-0.2191,-0.2153,-0.2145,-0.2186,-0.2186,-0.2186,-0.2186,-0.2186,-0.2186,-0.1878,-0.1912,-0.1919,-0.1962,-0.1976,-0.2007,-0.202,-0.2039,-0.2055,-0.2093,-0.2117,-0.2129,-0.2149,-0.218,-0.2206,-0.2211,-0.2222,-0.2228,-0.2233,-0.2198,-0.2194,-0.2189,-0.2182,-0.223,-0.223,-0.2269,-0.2269,-0.2269]}]]